Time,TemperatureF,DewpointF,PressureIn,WindDirection,WindDirectionDegrees,WindSpeedMPH,WindSpeedGustMPH,Humidity,HourlyPrecipIn,Conditions,Clouds,dailyrainin,SolarRadiationWatts/m^2,SoftwareType,DateUTC
2013-02-01 00:09:00,53.6,49.0,30.23,East,99,0.0,-999.0,85,-99.99,,,0.00,0,weatherlink.com 1.10,2013-02-01 06:09:00,
2013-02-01 00:24:00,53.8,49.0,30.23,ESE,102,0.0,-999.0,85,-99.99,,,0.00,0,weatherlink.com 1.10,2013-02-01 06:24:00,
2013-02-01 00:39:00,53.9,50.0,30.23,ESE,103,1.0,-999.0,86,-99.99,,,0.00,0,weatherlink.com 1.10,2013-02-01 06:39:00,
2013-02-01 00:54:00,54.0,50.0,30.23,East,91,0.0,-999.0,86,-99.99,,,0.00,0,weatherlink.com 1.10,2013-02-01 06:54:00,
2013-02-01 01:09:00,54.1,50.0,30.23,East,91,1.0,-999.0,86,-99.99,,,0.00,0,weatherlink.com 1.10,2013-02-01 07:09:00,
2013-02-01 01:24:00,54.1,50.0,30.22,East,91,0.0,-999.0,86,-99.99,,,0.00,0,weatherlink.com 1.10,2013-02-01 07:24:00,
2013-02-01 01:44:00,54.1,50.0,30.22,East,91,0.0,-999.0,87,-99.99,,,0.00,0,weatherlink.com 1.10,2013-02-01 07:44:00,
2013-02-01 01:54:00,54.3,51.0,30.22,East,91,0.0,-999.0,87,-99.99,,,0.00,0,weatherlink.com 1.10,2013-02-01 07:54:00,
2013-02-01 02:09:00,54.3,51.0,30.22,East,91,0.0,-999.0,87,-99.99,,,0.00,0,weatherlink.com 1.10,2013-02-01 08:09:00,
2013-02-01 02:25:00,54.2,51.0,30.22,East,91,0.0,-999.0,87,-99.99,,,0.00,0,weatherlink.com 1.10,2013-02-01 08:25:00,
2013-02-01 02:39:00,53.8,50.0,30.22,East,91,0.0,-999.0,87,-99.99,,,0.00,0,weatherlink.com 1.10,2013-02-01 08:39:00,
2013-02-01 02:54:00,53.4,50.0,30.23,East,91,0.0,-999.0,87,-99.99,,,0.00,0,weatherlink.com 1.10,2013-02-01 08:54:00,
2013-02-01 03:09:00,53.0,50.0,30.22,East,91,0.0,-999.0,88,-99.99,,,0.00,0,weatherlink.com 1.10,2013-02-01 09:09:00,
2013-02-01 03:25:00,52.4,49.0,30.22,East,91,0.0,-999.0,88,-99.99,,,0.00,0,weatherlink.com 1.10,2013-02-01 09:25:00,
2013-02-01 03:39:00,52.0,49.0,30.23,East,91,0.0,-999.0,90,-99.99,,,0.00,0,weatherlink.com 1.10,2013-02-01 09:39:00,
2013-02-01 03:54:00,51.9,49.0,30.23,East,91,0.0,-999.0,91,-99.99,,,0.00,0,weatherlink.com 1.10,2013-02-01 09:54:00,
2013-02-01 04:09:00,51.5,49.0,30.24,East,91,0.0,-999.0,90,-99.99,,,0.00,0,weatherlink.com 1.10,2013-02-01 10:09:00,
2013-02-01 04:24:00,51.4,49.0,30.23,East,91,0.0,-999.0,92,-99.99,,,0.00,0,weatherlink.com 1.10,2013-02-01 10:24:00,
2013-02-01 04:39:00,51.5,49.0,30.23,East,91,0.0,-999.0,92,-99.99,,,0.00,0,weatherlink.com 1.10,2013-02-01 10:39:00,
2013-02-01 04:54:00,51.8,50.0,30.23,East,91,0.0,-999.0,93,-99.99,,,0.00,0,weatherlink.com 1.10,2013-02-01 10:54:00,
2013-02-01 05:09:00,52.5,51.0,30.23,East,91,1.0,-999.0,93,-99.99,,,0.00,0,weatherlink.com 1.10,2013-02-01 11:09:00,
2013-02-01 05:24:00,52.8,51.0,30.23,East,91,0.0,-999.0,93,-99.99,,,0.00,0,weatherlink.com 1.10,2013-02-01 11:24:00,
2013-02-01 05:39:00,52.8,51.0,30.23,East,91,0.0,-999.0,93,-99.99,,,0.00,0,weatherlink.com 1.10,2013-02-01 11:39:00,
2013-02-01 05:54:00,53.2,51.0,30.24,East,91,0.0,-999.0,93,-99.99,,,0.00,0,weatherlink.com 1.10,2013-02-01 11:54:00,
2013-02-01 06:09:00,53.7,52.0,30.23,East,91,0.0,-999.0,92,-99.99,,,0.00,0,weatherlink.com 1.10,2013-02-01 12:09:00,
2013-02-01 06:24:00,53.5,51.0,30.24,East,91,0.0,-999.0,92,-99.99,,,0.00,0,weatherlink.com 1.10,2013-02-01 12:24:00,
2013-02-01 06:39:00,53.1,51.0,30.25,East,91,0.0,-999.0,91,-99.99,,,0.00,0,weatherlink.com 1.10,2013-02-01 12:39:00,
2013-02-01 06:54:00,52.4,50.0,30.25,East,91,0.0,-999.0,91,-99.99,,,0.00,0,weatherlink.com 1.10,2013-02-01 12:54:00,
2013-02-01 07:09:00,51.6,49.0,30.26,East,91,0.0,-999.0,91,-99.99,,,0.00,0,weatherlink.com 1.10,2013-02-01 13:09:00,
2013-02-01 07:24:00,51.4,49.0,30.26,East,91,0.0,-999.0,92,-99.99,,,0.00,11,weatherlink.com 1.10,2013-02-01 13:24:00,
2013-02-01 07:39:00,51.9,50.0,30.25,East,91,0.0,-999.0,93,-99.99,,,0.00,37,weatherlink.com 1.10,2013-02-01 13:39:00,
2013-02-01 07:54:00,52.8,51.0,30.25,East,91,0.0,-999.0,94,-99.99,,,0.00,74,weatherlink.com 1.10,2013-02-01 13:54:00,
2013-02-01 08:09:00,54.1,53.0,30.26,East,91,0.0,-999.0,94,-99.99,,,0.00,54,weatherlink.com 1.10,2013-02-01 14:09:00,
2013-02-01 08:24:00,54.9,53.0,30.26,ESE,117,0.0,-999.0,94,-99.99,,,0.00,46,weatherlink.com 1.10,2013-02-01 14:24:00,
2013-02-01 08:39:00,55.7,54.0,30.27,ESE,117,0.0,-999.0,93,-99.99,,,0.00,221,weatherlink.com 1.10,2013-02-01 14:39:00,
2013-02-01 08:54:00,58.4,56.0,30.28,ESE,117,0.0,-999.0,92,-99.99,,,0.00,290,weatherlink.com 1.10,2013-02-01 14:54:00,
2013-02-01 09:09:00,62.1,57.0,30.28,SSE,148,0.0,-999.0,83,-99.99,,,0.00,362,weatherlink.com 1.10,2013-02-01 15:09:00,
2013-02-01 09:25:00,65.5,55.0,30.29,SE,132,0.0,-999.0,70,-99.99,,,0.00,411,weatherlink.com 1.10,2013-02-01 15:25:00,
2013-02-01 09:40:00,66.9,52.0,30.29,SE,126,2.0,-999.0,60,-99.99,,,0.00,362,weatherlink.com 1.10,2013-02-01 15:40:00,
2013-02-01 09:55:00,68.0,52.0,30.29,SE,142,5.0,-999.0,56,-99.99,,,0.00,404,weatherlink.com 1.10,2013-02-01 15:55:00,
2013-02-01 10:10:00,68.4,50.0,30.29,ESE,119,2.0,-999.0,53,-99.99,,,0.00,490,weatherlink.com 1.10,2013-02-01 16:10:00,
2013-02-01 10:25:00,69.0,51.0,30.29,South,175,3.0,-999.0,53,-99.99,,,0.00,585,weatherlink.com 1.10,2013-02-01 16:25:00,
2013-02-01 10:40:00,69.6,52.0,30.29,ESE,103,3.0,-999.0,53,-99.99,,,0.00,606,weatherlink.com 1.10,2013-02-01 16:40:00,
2013-02-01 10:55:00,69.8,50.0,30.28,SSE,158,3.0,-999.0,50,-99.99,,,0.00,512,weatherlink.com 1.10,2013-02-01 16:55:00,
2013-02-01 11:10:00,69.6,49.0,30.28,East,79,4.0,-999.0,48,-99.99,,,0.00,657,weatherlink.com 1.10,2013-02-01 17:10:00,
2013-02-01 11:25:00,70.3,48.0,30.27,SE,126,1.0,-999.0,45,-99.99,,,0.00,424,weatherlink.com 1.10,2013-02-01 17:25:00,
2013-02-01 11:40:00,70.6,50.0,30.27,SE,126,2.0,-999.0,48,-99.99,,,0.00,712,weatherlink.com 1.10,2013-02-01 17:40:00,
2013-02-01 11:55:00,70.7,50.0,30.27,ESE,107,8.0,-999.0,49,-99.99,,,0.00,775,weatherlink.com 1.10,2013-02-01 17:55:00,
2013-02-01 12:10:00,69.8,51.0,30.27,East,99,3.0,-999.0,51,-99.99,,,0.00,807,weatherlink.com 1.10,2013-02-01 18:10:00,
2013-02-01 12:25:00,70.9,52.0,30.26,ESE,121,6.0,-999.0,51,-99.99,,,0.00,700,weatherlink.com 1.10,2013-02-01 18:25:00,
2013-02-01 12:40:00,70.9,50.0,30.25,ESE,123,4.0,-999.0,48,-99.99,,,0.00,766,weatherlink.com 1.10,2013-02-01 18:40:00,
2013-02-01 12:55:00,71.6,50.0,30.24,SE,133,5.0,-999.0,46,-99.99,,,0.00,747,weatherlink.com 1.10,2013-02-01 18:55:00,
2013-02-01 13:10:00,71.3,48.0,30.24,SSE,161,3.0,-999.0,44,-99.99,,,0.00,775,weatherlink.com 1.10,2013-02-01 19:10:00,
2013-02-01 13:26:00,71.0,50.0,30.22,SE,128,2.0,-999.0,47,-99.99,,,0.00,768,weatherlink.com 1.10,2013-02-01 19:26:00,
2013-02-01 13:40:00,71.8,47.0,30.22,SSE,153,5.0,-999.0,42,-99.99,,,0.00,687,weatherlink.com 1.10,2013-02-01 19:40:00,
2013-02-01 13:56:00,71.1,49.0,30.21,SSE,168,10.0,-999.0,46,-99.99,,,0.00,708,weatherlink.com 1.10,2013-02-01 19:56:00,
2013-02-01 14:10:00,71.4,49.0,30.20,East,88,2.0,-999.0,45,-99.99,,,0.00,675,weatherlink.com 1.10,2013-02-01 20:10:00,
2013-02-01 14:25:00,70.6,49.0,30.20,SSE,159,4.0,-999.0,46,-99.99,,,0.00,666,weatherlink.com 1.10,2013-02-01 20:25:00,
2013-02-01 14:41:00,70.6,49.0,30.19,SE,138,4.0,-999.0,46,-99.99,,,0.00,613,weatherlink.com 1.10,2013-02-01 20:41:00,
2013-02-01 14:55:00,70.5,49.0,30.19,SSW,209,1.0,-999.0,46,-99.99,,,0.00,592,weatherlink.com 1.10,2013-02-01 20:55:00,
2013-02-01 15:11:00,70.0,50.0,30.18,NNE,24,4.0,-999.0,49,-99.99,,,0.00,545,weatherlink.com 1.10,2013-02-01 21:11:00,
2013-02-01 15:25:00,70.0,49.0,30.18,SE,144,5.0,-999.0,48,-99.99,,,0.00,510,weatherlink.com 1.10,2013-02-01 21:25:00,
2013-02-01 15:40:00,70.4,49.0,30.18,ESE,117,1.0,-999.0,46,-99.99,,,0.00,466,weatherlink.com 1.10,2013-02-01 21:40:00,
2013-02-01 15:55:00,69.3,49.0,30.18,East,95,6.0,-999.0,49,-99.99,,,0.00,413,weatherlink.com 1.10,2013-02-01 21:55:00,
2013-02-01 16:10:00,69.0,50.0,30.17,ESE,113,9.0,-999.0,51,-99.99,,,0.00,362,weatherlink.com 1.10,2013-02-01 22:10:00,
2013-02-01 16:25:00,68.2,49.0,30.17,SE,131,11.0,-999.0,50,-99.99,,,0.00,318,weatherlink.com 1.10,2013-02-01 22:25:00,
2013-02-01 16:40:00,67.6,49.0,30.17,SSE,151,3.0,-999.0,51,-99.99,,,0.00,260,weatherlink.com 1.10,2013-02-01 22:40:00,
2013-02-01 16:56:00,67.9,48.0,30.17,ESE,111,2.0,-999.0,50,-99.99,,,0.00,183,weatherlink.com 1.10,2013-02-01 22:56:00,
2013-02-01 17:11:00,67.2,49.0,30.17,ESE,121,3.0,-999.0,52,-99.99,,,0.00,144,weatherlink.com 1.10,2013-02-01 23:11:00,
2013-02-01 17:26:00,66.5,49.0,30.17,SE,126,7.0,-999.0,54,-99.99,,,0.00,72,weatherlink.com 1.10,2013-02-01 23:26:00,
2013-02-01 17:41:00,65.6,49.0,30.17,SSE,151,3.0,-999.0,56,-99.99,,,0.00,39,weatherlink.com 1.10,2013-02-01 23:41:00,
2013-02-01 17:56:00,64.7,50.0,30.16,East,101,3.0,-999.0,59,-99.99,,,0.00,19,weatherlink.com 1.10,2013-02-01 23:56:00,
2013-02-01 18:11:00,63.8,50.0,30.16,SE,142,3.0,-999.0,62,-99.99,,,0.00,0,weatherlink.com 1.10,2013-02-02 00:11:00,
2013-02-01 18:26:00,62.9,51.0,30.17,East,92,1.0,-999.0,65,-99.99,,,0.00,0,weatherlink.com 1.10,2013-02-02 00:26:00,
2013-02-01 18:41:00,61.9,51.0,30.17,SE,130,0.0,-999.0,67,-99.99,,,0.00,0,weatherlink.com 1.10,2013-02-02 00:41:00,
2013-02-01 18:56:00,61.1,51.0,30.17,SE,140,3.0,-999.0,70,-99.99,,,0.00,0,weatherlink.com 1.10,2013-02-02 00:56:00,
2013-02-01 19:11:00,60.5,52.0,30.17,East,90,0.0,-999.0,73,-99.99,,,0.00,0,weatherlink.com 1.10,2013-02-02 01:11:00,
2013-02-01 19:26:00,59.9,52.0,30.18,ESE,103,0.0,-999.0,75,-99.99,,,0.00,0,weatherlink.com 1.10,2013-02-02 01:26:00,
2013-02-01 19:41:00,59.4,52.0,30.18,East,98,0.0,-999.0,77,-99.99,,,0.00,0,weatherlink.com 1.10,2013-02-02 01:41:00,
2013-02-01 19:56:00,59.3,53.0,30.18,ESE,108,1.0,-999.0,80,-99.99,,,0.00,0,weatherlink.com 1.10,2013-02-02 01:56:00,
2013-02-01 20:11:00,59.4,53.0,30.18,ESE,107,2.0,-999.0,80,-99.99,,,0.00,0,weatherlink.com 1.10,2013-02-02 02:11:00,
2013-02-01 20:26:00,59.4,54.0,30.18,ESE,107,0.0,-999.0,81,-99.99,,,0.00,0,weatherlink.com 1.10,2013-02-02 02:26:00,
2013-02-01 20:41:00,59.1,53.0,30.18,SE,134,1.0,-999.0,81,-99.99,,,0.00,0,weatherlink.com 1.10,2013-02-02 02:41:00,
2013-02-01 20:56:00,58.6,53.0,30.18,ESE,121,0.0,-999.0,82,-99.99,,,0.00,0,weatherlink.com 1.10,2013-02-02 02:56:00,
2013-02-01 21:11:00,58.4,53.0,30.18,ESE,110,1.0,-999.0,83,-99.99,,,0.00,0,weatherlink.com 1.10,2013-02-02 03:11:00,
2013-02-01 21:26:00,58.4,54.0,30.18,ESE,110,0.0,-999.0,84,-99.99,,,0.00,0,weatherlink.com 1.10,2013-02-02 03:26:00,
2013-02-01 21:41:00,58.6,54.0,30.18,SE,138,0.0,-999.0,84,-99.99,,,0.00,0,weatherlink.com 1.10,2013-02-02 03:41:00,
2013-02-01 21:56:00,59.1,54.0,30.18,ESE,121,0.0,-999.0,84,-99.99,,,0.00,0,weatherlink.com 1.10,2013-02-02 03:56:00,
2013-02-01 22:11:00,59.1,54.0,30.18,ESE,117,0.0,-999.0,84,-99.99,,,0.00,0,weatherlink.com 1.10,2013-02-02 04:11:00,
2013-02-01 22:26:00,59.2,54.0,30.18,ESE,119,0.0,-999.0,84,-99.99,,,0.00,0,weatherlink.com 1.10,2013-02-02 04:26:00,
2013-02-01 22:41:00,59.1,54.0,30.17,ESE,123,0.0,-999.0,84,-99.99,,,0.00,0,weatherlink.com 1.10,2013-02-02 04:41:00,
2013-02-01 22:56:00,58.9,54.0,30.17,SE,145,0.0,-999.0,85,-99.99,,,0.00,0,weatherlink.com 1.10,2013-02-02 04:56:00,
2013-02-01 23:11:00,58.8,54.0,30.17,SE,145,0.0,-999.0,85,-99.99,,,0.00,0,weatherlink.com 1.10,2013-02-02 05:11:00,
2013-02-01 23:26:00,58.8,55.0,30.17,SE,145,0.0,-999.0,86,-99.99,,,0.00,0,weatherlink.com 1.10,2013-02-02 05:26:00,
2013-02-01 23:41:00,59.1,55.0,30.17,East,100,0.0,-999.0,87,-99.99,,,0.00,0,weatherlink.com 1.10,2013-02-02 05:41:00,
2013-02-01 23:56:00,59.6,56.0,30.16,ESE,102,0.0,-999.0,87,-99.99,,,0.00,0,weatherlink.com 1.10,2013-02-02 05:56:00,